Weather History for KRRT - October, 2012

Change the Weather History Date:

Tuesday, October 9, 2012

  Actual Average (KROX) Record (KROX)
Temperature  
Mean Temperature 34 °F -  
Max Temperature 39 °F 53 °F - (-1)
Min Temperature 30 °F 34 °F - (-1)
Degree Days  
Heating Degree Days 30    
Moisture  
Dew Point 31 °F    
Average Humidity 84    
Maximum Humidity 93    
Minimum Humidity 75    
Precipitation  
Precipitation 0.04 in - - ()
Sea Level Pressure  
Sea Level Pressure 29.75 in    
Wind  
Wind Speed 7 mph (WNW)    
Max Wind Speed 18 mph    
Max Gust Speed 28 mph    
Visibility 9 miles    
Events Rain , Snow    
Averages and records for this station are not official NWS values.
T = Trace of Precipitation, MM = Missing Value Source: NWS Daily Summary

Daily Weather History Graph

Daily Weather History Graph

Search for Another Location

Airport or City:

Trip Planner

Search our weather history database for the weather conditions in past years. The results will help you decide how hot, cold, wet, or windy it might be!

Date:

Astronomy

Oct. 09, 2012 Rise Set
Actual Time 7:33 AM CDT 6:42 PM CDT
Civil Twilight 7:01 AM CDT 7:14 PM CDT
Nautical Twilight 6:25 AM CDT 7:50 PM CDT
Astronomical Twilight 5:48 AM CDT 8:27 PM CDT
Moon 12:41 AM CDT (10/9) 3:37 PM CDT (10/9)
Length of Visible Light 12h 12m
Length of Day
11h 08m
Last Quarter, 36% of the Moon is Illuminated
Oct 9
Last Quarter
Oct 15
New
Oct 21
First Quarter
Oct 29
Full
Nov 6
Last Quarter

Hourly Weather History & Observations

Time (CDT) Temp. Windchill Dew Point Humidity Pressure Visibility Wind Dir Wind Speed Gust Speed Precip Events Conditions
12:14 AM 39.2 °F - 35.6 °F 87% 29.56 in 5.0 mi Calm Calm - N/A   Overcast
12:34 AM 39.2 °F - 35.6 °F 87% 29.56 in 4.0 mi Calm Calm - N/A   Overcast
12:54 AM 39.2 °F - 35.6 °F 87% 29.56 in 4.0 mi Calm Calm - N/A   Overcast
1:14 AM 39.2 °F 35.9 °F 35.6 °F 87% 29.56 in 4.0 mi SW 4.6 mph - N/A   Overcast
1:54 AM 37.4 °F 32.1 °F 35.6 °F 93% 29.56 in 10.0 mi WSW 6.9 mph - N/A   Overcast
2:14 AM 39.2 °F 34.2 °F 35.6 °F 87% 29.56 in 10.0 mi WSW 6.9 mph - N/A   Overcast
3:14 AM 37.4 °F 30.8 °F 33.8 °F 87% 29.56 in 10.0 mi WSW 9.2 mph - N/A   Overcast
3:34 AM 37.4 °F 30.8 °F 33.8 °F 87% 29.56 in 10.0 mi West 9.2 mph - N/A   Overcast
3:54 AM 37.4 °F 32.1 °F 33.8 °F 87% 29.56 in 10.0 mi West 6.9 mph - N/A   Overcast
4:14 AM 37.4 °F 31.4 °F 33.8 °F 87% 29.57 in 10.0 mi WSW 8.1 mph - N/A   Overcast
4:34 AM 37.4 °F 30.8 °F 33.8 °F 87% 29.57 in 10.0 mi WSW 9.2 mph - N/A   Overcast
4:54 AM 37.4 °F 30.8 °F 33.8 °F 87% 29.58 in 10.0 mi WSW 9.2 mph - N/A   Overcast
5:14 AM 35.6 °F 28.0 °F 33.8 °F 93% 29.58 in 10.0 mi West 10.4 mph - N/A   Overcast
5:34 AM 35.6 °F 29.2 °F 32.0 °F 87% 29.59 in 10.0 mi West 8.1 mph - N/A   Light Drizzle
5:54 AM 35.6 °F 29.2 °F 32.0 °F 87% 29.59 in 10.0 mi NNW 8.1 mph - N/A Rain Rain
6:14 AM 33.8 °F 30.8 °F 28.4 °F 81% 29.60 in 1.8 mi NNW 3.5 mph - 0.01 in Snow Snow
6:34 AM 33.8 °F 30.8 °F 28.4 °F 81% 29.61 in 2.0 mi NNW 3.5 mph - 0.03 in Snow Light Snow
7:14 AM 33.8 °F 28.6 °F 28.4 °F 81% 29.62 in 3.0 mi NW 5.8 mph - 0.01 in Snow Light Snow
7:34 AM 33.8 °F 27.7 °F 28.4 °F 81% 29.63 in 4.0 mi NW 6.9 mph - 0.01 in Snow Light Snow
7:54 AM 33.8 °F 27.0 °F 28.4 °F 81% 29.64 in 7.0 mi NW 8.1 mph - 0.01 in Snow Light Snow
8:14 AM 33.8 °F 27.0 °F 28.4 °F 81% 29.65 in 10.0 mi NW 8.1 mph - N/A   Overcast
8:34 AM 33.8 °F 26.4 °F 28.4 °F 81% 29.66 in 10.0 mi NW 9.2 mph - N/A   Overcast
8:54 AM 33.8 °F 25.3 °F 30.2 °F 87% 29.67 in 10.0 mi NW 11.5 mph - N/A   Overcast
9:14 AM 33.8 °F 25.8 °F 30.2 °F 87% 29.68 in 10.0 mi NNW 10.4 mph - N/A   Overcast
9:34 AM 33.8 °F 25.3 °F 30.2 °F 87% 29.69 in 10.0 mi NW 11.5 mph 16.1 mph N/A   Overcast
9:54 AM 33.8 °F 25.3 °F 30.2 °F 87% 29.70 in 7.0 mi NW 11.5 mph 17.3 mph N/A   Overcast
10:14 AM 33.8 °F 24.8 °F 30.2 °F 87% 29.71 in 5.0 mi NW 12.7 mph - N/A Snow Light Snow
10:34 AM 35.6 °F 27.1 °F 30.2 °F 81% 29.72 in 7.0 mi NW 12.7 mph 17.3 mph N/A   Overcast
10:54 AM 35.6 °F 26.6 °F 30.2 °F 81% 29.73 in 10.0 mi NW 13.8 mph 18.4 mph N/A   Overcast
11:14 AM 35.6 °F 26.6 °F 30.2 °F 81% 29.73 in 10.0 mi NW 13.8 mph 20.7 mph N/A Snow Light Snow
11:34 AM 35.6 °F 26.6 °F 30.2 °F 81% 29.75 in 10.0 mi NW 13.8 mph 20.7 mph N/A   Overcast
11:54 AM 35.6 °F 27.1 °F 32.0 °F 87% 29.75 in 10.0 mi NW 12.7 mph 20.7 mph N/A   Overcast
12:14 PM 35.6 °F 25.9 °F 32.0 °F 87% 29.76 in 10.0 mi NW 16.1 mph 19.6 mph N/A   Overcast
12:34 PM 35.6 °F 25.5 °F 32.0 °F 87% 29.77 in 7.0 mi NW 17.3 mph 21.9 mph N/A   Overcast
12:54 PM 35.6 °F 26.2 °F 32.0 °F 87% 29.77 in 10.0 mi NW 15.0 mph 23.0 mph N/A   Mostly Cloudy
1:14 PM 37.4 °F 27.5 °F 33.8 °F 87% 29.78 in 7.0 mi NW 18.4 mph 23.0 mph N/A   Mostly Cloudy
1:34 PM 37.4 °F 29.3 °F 33.8 °F 87% 29.78 in 7.0 mi WNW 12.7 mph 24.2 mph N/A   Mostly Cloudy
1:54 PM 37.4 °F 27.8 °F 33.8 °F 87% 29.79 in 5.0 mi NW 17.3 mph 26.5 mph N/A   Mostly Cloudy
2:14 PM 37.4 °F 28.5 °F 33.8 °F 87% 29.79 in 7.0 mi NW 15.0 mph 23.0 mph N/A   Drizzle
2:34 PM 37.4 °F 28.2 °F 33.8 °F 87% 29.80 in 7.0 mi NW 16.1 mph 27.6 mph N/A   Overcast
2:54 PM 35.6 °F 27.1 °F 32.0 °F 87% 29.81 in 10.0 mi NNW 12.7 mph 17.3 mph N/A   Mostly Cloudy
3:14 PM 35.6 °F 27.5 °F 32.0 °F 87% 29.82 in 3.0 mi NW 11.5 mph 17.3 mph N/A Rain Light Rain
3:34 PM 37.4 °F 28.9 °F 33.8 °F 87% 29.83 in 10.0 mi North 13.8 mph 17.3 mph N/A   Mostly Cloudy
3:54 PM 37.4 °F 29.3 °F 32.0 °F 81% 29.84 in 10.0 mi NNW 12.7 mph 19.6 mph N/A   Mostly Cloudy
4:14 PM 35.6 °F 30.7 °F 30.2 °F 81% 29.84 in 10.0 mi NNW 5.8 mph 16.1 mph N/A   Mostly Cloudy
4:34 PM 37.4 °F 29.8 °F 32.0 °F 81% 29.85 in 10.0 mi NW 11.5 mph 17.3 mph N/A   Clear
4:54 PM 37.4 °F 30.8 °F 30.2 °F 75% 29.85 in 10.0 mi NW 9.2 mph - N/A   Clear
5:14 PM 37.4 °F 29.3 °F 30.2 °F 75% 29.86 in 10.0 mi NW 12.7 mph 18.4 mph N/A   Scattered Clouds
5:34 PM 37.4 °F 30.3 °F 30.2 °F 75% 29.86 in 10.0 mi WNW 10.4 mph - N/A   Scattered Clouds
5:54 PM 37.4 °F 30.8 °F 30.2 °F 75% 29.87 in 10.0 mi WNW 9.2 mph - N/A   Scattered Clouds
6:14 PM 37.4 °F 30.8 °F 30.2 °F 75% 29.88 in 10.0 mi NW 9.2 mph - N/A   Mostly Cloudy
6:35 PM 35.6 °F 29.9 °F 30.2 °F 81% 29.89 in 10.0 mi WNW 6.9 mph - N/A   Overcast
6:54 PM 35.6 °F 30.7 °F 30.2 °F 81% 29.90 in 10.0 mi NNW 5.8 mph - N/A   Overcast
7:14 PM 35.6 °F 30.7 °F 30.2 °F 81% 29.91 in 10.0 mi WNW 5.8 mph - N/A   Overcast
7:35 PM 35.6 °F 29.9 °F 28.4 °F 75% 29.91 in 10.0 mi West 6.9 mph - N/A   Overcast
7:54 PM 33.8 °F 27.7 °F 28.4 °F 81% 29.91 in 10.0 mi West 6.9 mph - N/A   Mostly Cloudy
8:14 PM 33.8 °F 27.7 °F 28.4 °F 81% 29.91 in 10.0 mi West 6.9 mph - N/A   Overcast
8:35 PM 33.8 °F 27.0 °F 28.4 °F 81% 29.92 in 10.0 mi West 8.1 mph - N/A   Overcast
8:54 PM 33.8 °F 27.7 °F 28.4 °F 81% 29.92 in 10.0 mi West 6.9 mph - N/A   Overcast
9:14 PM 32.0 °F 25.6 °F 28.4 °F 87% 29.92 in 10.0 mi West 6.9 mph - N/A   Mostly Cloudy
9:35 PM 32.0 °F 25.6 °F 28.4 °F 87% 29.92 in 10.0 mi West 6.9 mph - N/A   Scattered Clouds
9:54 PM 30.2 °F 24.3 °F 26.6 °F 86% 29.92 in 10.0 mi West 5.8 mph - N/A   Clear
10:14 PM 30.2 °F 24.3 °F 26.6 °F 86% 29.92 in 10.0 mi West 5.8 mph - N/A   Clear
10:34 PM 30.2 °F 24.3 °F 26.6 °F 86% 29.92 in 10.0 mi West 5.8 mph - N/A   Clear
10:54 PM 30.2 °F 25.4 °F 26.6 °F 86% 29.93 in 10.0 mi West 4.6 mph - N/A   Mostly Cloudy
11:14 PM 30.2 °F 26.7 °F 26.6 °F 86% 29.93 in 10.0 mi West 3.5 mph - N/A   Overcast
11:34 PM 30.2 °F 25.4 °F 26.6 °F 86% 29.93 in 10.0 mi West 4.6 mph - N/A   Overcast
11:54 PM 30.2 °F 25.4 °F 26.6 °F 86% 29.93 in 10.0 mi WNW 4.6 mph - N/A   Overcast